GFSSGP_925_temp_102.txt.gz
Temp
21 21 21 21 22 22 25 27 27 25 24 26 26 26 25 23 24 22 20 21 22 22 21 21 21 21 21 21 21 21 21 21 21 21 21 21 21 21 21 21 21 21 21 21 21 21 21 20 20
22 21 21 21 23 24 26 25 25 26 26 26 26 25 24 22 21 19 20 20 22 21 21 21 21 21 21 21 21 21 21 21 21 21 21 21 21 21 21 21 21 21 21 21 21 21 21 21 20
22 22 22 22 23 25 25 26 26 27 27 27 25 24 23 22 21 20 20 21 22 21 21 21 22 21 21 21 21 21 20 21 21 21 21 21 21 21 21 21 21 21 21 21 21 21 21 20 20
22 22 21 23 24 26 26 27 28 27 27 25 24 22 22 22 22 20 20 21 22 21 21 22 21 21 21 21 21 21 20 21 21 21 21 21 21 21 21 21 21 21 21 21 21 21 21 21 20
22 22 23 23 24 25 26 27 28 26 27 26 26 22 22 20 21 20 21 21 22 21 21 21 21 21 21 21 21 21 21 20 21 20 21 21 21 21 21 21 21 21 21 21 21 21 21 21 21
22 22 23 24 24 24 26 27 27 26 25 24 23 23 21 20 20 20 21 21 22 21 21 21 21 21 21 21 21 21 21 20 21 20 21 21 22 22 21 21 21 21 21 21 21 21 22 22 20
22 22 23 24 24 23 26 26 25 26 24 24 25 22 21 20 20 20 21 21 21 21 21 21 21 21 21 21 21 21 21 21 20 20 20 21 22 22 21 21 21 21 21 21 21 21 21 21 21
22 22 23 23 23 23 25 25 25 25 24 25 24 21 21 20 20 20 20 21 20 21 21 21 21 21 21 21 21 20 20 21 20 20 21 21 22 22 21 21 21 21 21 21 21 22 22 22 21
24 23 24 22 23 23 24 25 25 25 25 25 25 23 22 20 20 20 20 20 20 20 20 21 20 21 21 21 20 20 21 20 20 20 21 22 22 22 21 21 21 21 20 22 22 22 22 22 22
24 23 25 24 24 23 24 26 25 25 24 23 22 22 21 20 20 19 19 19 20 20 20 20 21 21 21 21 21 21 20 20 20 21 21 22 21 21 21 21 21 20 22 22 23 22 22 22 22
23 23 24 23 23 25 24 25 27 24 23 23 21 21 21 20 20 20 20 19 20 21 20 20 21 21 21 21 21 21 21 21 21 21 21 22 22 22 22 22 21 22 22 23 23 22 23 23 23
24 24 24 23 24 25 25 24 26 24 25 23 23 22 22 21 21 20 20 20 20 20 21 21 21 21 21 21 21 21 21 21 21 21 21 22 22 22 22 22 22 22 23 23 23 23 23 23 24
25 24 24 25 26 25 26 25 23 21 25 24 23 23 22 22 21 21 21 21 21 21 21 21 21 22 22 22 21 21 21 22 22 22 22 22 22 23 23 23 22 23 23 23 23 23 24 24 24
26 26 26 25 24 25 24 24 24 21 23 24 23 23 22 22 22 22 22 21 22 22 22 21 22 22 22 22 22 22 22 22 22 22 23 23 23 23 23 23 23 23 23 23 23 24 25 25 25
26 24 26 24 24 25 25 24 23 21 23 24 23 23 23 23 22 22 22 22 23 23 23 22 22 22 23 23 22 22 22 23 23 23 23 23 23 23 23 23 23 23 23 23 24 24 25 25 25
25 26 24 24 24 24 25 24 23 21 21 24 24 24 24 23 23 23 23 23 23 23 23 23 22 23 23 23 23 23 23 23 23 23 23 23 23 23 23 23 23 23 23 24 24 25 25 25 25
24 24 25 25 24 25 25 22 23 22 22 24 24 24 24 23 23 23 23 24 23 23 23 23 23 23 24 24 23 23 23 23 23 24 24 23 23 23 23 23 23 24 24 24 25 25 25 24 24
25 25 26 26 24 25 24 24 24 24 25 25 25 24 24 23 24 23 23 24 24 23 23 23 23 24 24 24 24 23 23 23 23 23 23 24 24 24 24 24 24 24 24 25 24 25 24 25 25
26 26 24 23 23 23 22 24 23 24 26 24 25 24 23 24 25 23 23 23 23 24 24 23 24 24 24 24 24 23 24 23 23 23 23 24 23 24 24 24 24 24 24 25 25 25 25 25 25
24 24 23 23 23 23 23 23 24 23 23 23 24 25 24 25 23 24 23 23 24 24 24 23 24 24 24 25 24 24 24 23 23 23 23 23 23 23 24 24 24 24 24 25 24 24 25 25 25
25 25 22 24 23 22 23 23 23 24 25 24 24 25 25 24 24 22 23 23 23 24 24 24 24 24 24 24 24 24 24 23 23 23 23 23 23 23 23 23 24 24 24 24 24 24 25 25 25
25 25 26 23 23 22 23 23 22 24 23 24 25 24 24 24 24 23 23 23 23 24 24 24 24 24 24 24 24 24 24 24 24 24 24 24 23 23 23 23 23 24 24 24 24 24 24 24 24
26 27 25 24 22 22 23 23 22 22 22 22 22 24 25 24 24 23 23 23 23 24 24 24 24 24 24 24 24 24 24 24 24 24 24 24 23 23 23 23 23 24 24 24 24 25 24 24 24
26 24 21 21 21 22 23 23 22 21 23 23 23 24 25 25 24 24 24 24 23 23 24 24 24 24 24 24 24 24 24 24 24 23 23 24 23 23 23 23 24 24 24 24 24 24 24 25 24
26 22 20 21 21 22 21 23 23 22 23 24 24 25 25 25 24 25 24 24 23 23 23 24 24 24 24 24 24 24 24 24 24 24 24 24 24 24 24 23 24 24 24 24 24 24 24 25 24
22 22 21 23 21 22 22 23 24 22 22 24 26 25 24 24 24 24 24 24 24 23 23 23 24 24 24 24 24 24 24 24 23 24 24 24 24 24 24 24 23 24 24 24 24 24 24 24 24
25 23 23 21 22 22 21 22 22 22 23 23 22 23 23 23 23 23 23 24 24 23 23 23 23 23 24 24 23 24 24 24 24 24 24 24 24 24 24 24 24 23 23 24 24 23 24 24 24
24 23 24 20 22 23 21 21 22 22 22 21 21 20 21 22 21 21 21 23 24 24 23 23 22 23 23 23 23 24 24 24 24 24 24 24 24 24 24 24 24 24 24 23 23 23 23 23 23
24 24 20 20 20 21 21 21 21 21 21 21 20 20 20 20 21 20 20 21 23 23 23 23 23 23 22 23 23 23 23 24 24 24 24 24 24 24 24 25 24 24 24 23 23 23 23 23 23
25 24 21 21 22 19 20 20 21 21 21 20 20 19 19 19 19 20 19 20 21 20 19 20 22 22 22 22 22 23 23 23 23 24 23 23 24 24 25 25 24 24 24 24 23 23 23 23 23

GFSSGP_925_temp_105.txt.gz
Temp
21 21 21 22 24 25 27 28 28 26 26 27 28 27 27 26 26 27 21 20 22 22 21 21 21 21 21 21 21 21 21 20 21 21 21 21 21 21 21 21 21 21 21 21 21 21 20 20 20
21 21 22 22 25 27 27 27 27 28 28 28 28 27 26 24 23 22 22 21 22 22 21 21 21 21 21 21 21 21 21 21 21 21 21 21 21 21 21 21 21 21 21 21 21 21 21 20 20
21 22 22 24 25 26 27 28 28 29 28 28 26 26 25 23 23 22 22 21 22 21 21 21 21 21 21 21 20 21 21 21 21 21 21 21 22 22 21 21 20 21 21 21 21 21 20 20 20
22 23 23 24 25 26 27 28 29 28 29 27 26 24 23 23 23 21 21 22 22 22 22 21 21 21 21 21 21 20 22 21 22 21 21 21 21 22 21 21 21 21 21 21 21 21 21 20 20
23 24 25 24 24 26 28 29 30 28 28 27 27 23 23 22 22 21 21 22 22 22 22 21 21 21 21 20 21 21 21 21 21 21 22 22 22 21 21 21 21 21 21 21 21 21 21 21 20
24 24 24 24 24 25 28 29 29 28 27 25 25 25 23 21 22 21 22 22 22 22 22 22 21 21 21 21 21 20 21 20 21 21 22 22 21 21 21 21 21 21 21 21 21 21 21 20 20
23 22 24 24 24 24 27 28 27 27 27 26 26 25 21 22 21 21 21 21 22 21 22 22 22 21 21 20 21 21 20 20 21 22 22 22 22 21 21 21 21 21 21 21 21 21 21 21 21
24 24 24 23 24 24 25 27 26 27 25 27 27 24 22 22 21 21 21 21 21 21 21 21 21 21 21 21 21 20 20 20 21 21 21 21 21 21 21 21 21 21 21 21 22 22 22 21 21
26 24 24 23 23 23 25 26 26 27 26 27 26 26 25 22 21 21 21 21 21 21 21 21 21 21 21 20 20 20 20 20 20 21 21 21 21 21 21 21 21 21 21 22 22 22 22 21 21
25 25 24 23 23 24 26 26 26 26 25 24 24 23 22 22 22 23 23 22 21 21 21 21 21 21 21 21 20 20 20 21 20 21 21 21 21 21 22 21 20 22 22 22 23 22 22 22 22
25 25 24 22 23 23 25 26 27 25 25 25 24 23 23 23 23 24 23 23 22 21 21 21 20 20 20 21 20 20 21 20 20 21 21 21 21 20 20 20 21 22 22 22 22 23 23 22 22
25 25 25 22 22 23 24 26 25 25 26 26 25 24 24 24 24 24 24 23 22 21 21 21 20 20 21 21 21 21 21 21 21 21 21 21 21 21 21 21 22 22 23 23 23 22 23 23 23
26 25 24 23 25 27 24 25 23 24 25 25 25 25 25 25 24 24 24 23 22 22 21 21 20 20 21 21 21 21 21 21 21 21 22 21 21 21 21 22 22 23 23 23 23 24 23 23 24
26 27 26 25 24 27 23 23 25 23 25 25 25 25 25 25 24 24 23 23 22 22 22 21 20 21 21 21 22 21 21 21 21 22 22 23 22 22 22 23 23 23 23 23 24 24 24 24 24
27 26 27 26 25 25 23 23 23 23 26 25 25 26 26 25 25 24 24 23 23 23 22 21 21 21 22 22 22 22 21 22 22 23 23 23 23 23 23 22 22 23 24 24 24 24 25 24 24
27 27 26 25 26 24 25 23 22 21 24 25 25 26 25 26 25 25 24 24 23 23 22 21 22 21 22 22 22 22 22 23 23 23 23 23 23 23 23 22 22 23 23 24 24 24 24 24 24
27 27 26 25 24 24 23 23 21 21 23 26 26 26 26 26 25 25 25 24 24 23 22 22 22 22 22 22 22 23 23 22 23 23 23 23 23 23 23 23 23 23 24 24 23 24 24 24 24
27 27 27 24 25 25 25 25 22 21 22 26 26 26 26 26 26 25 25 24 24 23 22 22 22 22 23 23 23 23 23 23 23 23 23 23 23 23 23 23 23 24 24 23 24 25 25 24 24
29 29 26 24 23 24 24 25 22 21 23 25 25 26 26 27 27 25 25 24 24 23 22 22 22 23 22 23 22 22 23 22 23 23 23 23 23 23 23 23 23 24 23 24 25 24 24 25 24
29 28 25 24 23 24 23 24 24 22 23 26 26 27 27 26 27 25 25 25 25 24 23 22 23 23 23 22 23 23 22 23 23 23 23 23 23 23 23 23 23 24 23 25 25 25 24 24 24
28 28 25 27 24 24 23 23 23 23 24 24 25 27 28 28 27 26 25 25 25 24 23 22 23 23 24 23 23 23 23 23 23 23 23 23 23 23 23 24 24 24 24 24 25 25 25 25 24
28 28 27 25 26 26 25 23 23 24 22 22 25 25 27 28 28 27 26 25 25 25 23 23 23 23 23 24 23 24 24 24 23 23 23 23 23 23 23 23 24 24 24 24 24 24 24 24 25
28 29 27 27 26 26 24 24 25 23 23 23 23 27 28 28 28 28 26 26 26 25 24 23 22 22 23 23 23 24 24 24 24 23 23 23 23 23 23 23 23 24 24 24 24 24 24 24 24
27 28 26 26 25 25 27 26 24 24 26 26 25 25 28 28 28 27 27 25 25 25 24 23 22 22 23 23 24 24 24 24 23 23 23 23 23 23 23 23 23 23 23 24 24 24 24 24 24
28 28 27 26 26 27 25 26 30 26 26 27 27 26 26 28 28 27 26 25 24 24 24 23 22 22 22 23 23 23 24 24 24 23 23 23 23 23 23 23 23 23 23 24 24 24 24 24 24
27 29 29 26 27 28 25 26 29 25 26 27 27 28 27 27 28 28 26 26 25 24 24 24 23 22 22 22 22 23 23 24 24 23 23 23 23 24 24 23 23 23 23 23 23 23 23 24 23
27 27 30 28 27 29 27 26 26 25 25 26 27 26 26 26 27 27 26 26 24 23 23 24 23 22 22 22 22 23 23 23 23 24 24 23 24 23 23 24 24 23 23 23 23 23 23 23 23
29 31 28 28 27 28 27 26 28 24 25 26 26 26 26 27 26 25 24 25 25 23 24 23 23 22 22 22 22 23 23 24 23 23 23 24 23 24 24 24 24 24 23 23 23 23 23 23 23
28 28 28 30 28 30 29 28 26 26 25 25 25 26 25 25 24 24 24 23 23 23 23 23 22 22 24 23 22 23 23 22 23 23 24 23 23 23 23 24 23 24 24 23 23 23 23 23 22
28 30 30 30 28 27 28 28 24 25 24 23 23 23 24 25 25 25 23 21 21 22 22 21 22 22 23 23 23 22 22 23 22 23 23 23 24 23 24 24 24 24 23 23 24 22 22 23 23

GFSSGP_925_temp_108.txt.gz
Temp
23 24 25 26 27 29 31 30 32 30 30 32 32 32 31 30 30 29 27 26 25 25 23 22 21 21 21 21 21 21 21 21 21 21 21 21 21 21 21 21 21 21 21 21 21 20 20 20 21
25 24 25 27 28 30 30 31 31 32 31 32 31 31 31 27 28 27 26 26 26 26 25 23 21 22 22 21 21 21 21 21 21 21 21 21 21 21 21 21 21 21 21 21 21 21 21 21 20
25 25 27 28 29 29 30 32 32 32 32 31 29 31 29 26 28 28 26 26 26 25 25 22 22 22 21 21 21 21 20 21 21 21 21 21 21 21 21 21 21 21 21 21 21 21 21 20 21
27 27 28 28 28 28 32 32 32 31 31 31 30 27 27 28 27 27 26 26 26 25 25 22 21 20 21 21 21 21 21 22 21 21 21 22 21 21 21 21 22 22 21 21 21 21 21 21 20
27 28 27 27 28 29 32 33 33 32 31 30 31 28 27 26 26 26 26 27 27 26 25 23 21 21 21 21 21 21 21 22 22 21 22 22 22 21 21 21 22 21 21 21 21 21 21 20 20
26 29 28 25 26 28 31 33 32 32 31 29 29 28 27 26 26 26 26 27 27 26 26 23 21 21 21 21 21 21 21 21 22 21 21 22 21 21 21 21 21 21 21 21 21 21 21 20 20
23 24 26 26 24 28 29 32 32 31 30 29 31 29 26 27 26 26 26 26 27 26 25 24 24 21 20 20 20 20 21 22 22 21 21 22 21 21 21 21 21 21 21 21 21 21 21 21 21
26 24 27 27 24 26 29 30 31 31 30 31 31 28 26 27 26 26 26 26 26 26 25 25 23 23 22 23 20 20 21 21 21 21 21 21 21 22 21 22 21 21 21 21 21 22 21 21 21
28 25 27 26 25 25 29 29 29 30 29 31 30 31 28 26 26 26 26 26 26 25 25 26 25 23 22 22 21 21 21 21 22 22 21 22 22 22 23 21 21 21 21 22 22 22 22 22 22
28 27 28 26 24 26 29 29 29 29 30 29 30 29 27 26 26 27 27 27 26 25 26 24 25 23 24 24 22 22 23 24 24 23 23 24 24 22 23 22 22 21 22 23 23 23 23 24 26
29 27 27 24 23 26 29 29 30 30 29 29 28 28 27 27 27 28 28 27 27 26 25 25 24 24 24 23 24 24 24 24 22 23 24 24 24 24 24 23 23 23 23 25 24 24 25 24 25
28 28 29 25 23 25 28 29 28 30 30 30 30 29 28 28 29 29 28 28 26 25 25 25 24 24 24 24 25 24 24 24 24 23 23 23 24 24 24 24 23 23 24 24 24 25 24 25 25
29 27 26 23 23 25 23 27 26 28 29 30 30 29 29 29 29 29 28 27 26 26 25 25 24 23 22 24 24 24 24 25 24 24 23 24 24 23 24 23 24 24 24 25 25 25 25 25 26
29 28 26 23 23 23 25 25 26 27 29 29 29 30 30 30 29 28 28 27 27 26 25 24 24 22 23 23 23 24 24 24 25 24 23 23 24 24 24 24 24 24 25 25 25 25 26 27 26
27 28 27 25 26 26 23 24 24 27 29 29 30 30 30 30 29 28 27 27 27 26 25 24 24 23 23 23 23 24 25 25 25 24 23 23 23 22 23 24 25 25 24 24 25 25 26 27 27
29 29 27 24 25 26 27 25 23 25 29 29 30 30 30 30 29 28 28 28 27 26 25 24 25 24 24 23 22 25 25 25 25 25 24 23 22 22 23 24 25 24 25 25 26 27 27 27 28
31 28 27 24 23 23 23 24 22 25 29 30 30 30 30 30 29 28 28 27 27 26 25 25 25 24 24 23 24 24 23 25 25 25 25 23 23 22 24 25 24 23 25 26 27 27 27 27 28
31 29 27 26 24 24 23 23 22 22 28 29 30 30 30 30 30 28 28 28 27 26 25 25 25 24 24 23 23 25 25 25 25 25 25 23 23 23 24 24 24 25 26 26 27 26 27 27 27
33 33 27 27 26 23 24 23 22 23 26 30 30 31 31 31 30 29 28 28 27 26 25 25 24 23 24 24 25 25 26 25 25 25 23 23 23 23 23 25 24 25 26 26 25 27 26 28 27
33 32 28 26 26 25 24 24 22 22 25 30 30 31 31 31 31 29 28 28 28 26 26 24 24 23 23 25 25 26 26 25 25 25 23 23 23 23 23 24 24 25 25 25 25 25 28 28 27
33 32 30 28 25 23 24 24 22 21 23 28 30 31 32 31 31 30 29 29 28 27 26 25 24 24 23 25 24 24 23 23 23 23 24 24 23 23 23 23 24 24 26 26 25 26 26 28 27
32 32 31 29 29 26 25 25 24 22 22 25 28 30 32 31 31 31 30 29 29 28 26 25 25 24 24 23 25 25 24 23 25 24 25 24 23 24 23 23 24 24 25 25 25 26 26 26 28
31 30 31 31 30 30 28 27 25 23 23 23 25 29 32 32 31 32 30 29 29 28 27 26 25 24 24 23 23 24 25 26 25 25 24 23 23 23 24 23 23 23 25 24 24 25 25 27 28
30 30 30 30 30 30 31 29 25 27 28 28 25 29 31 32 32 32 31 30 29 29 28 26 25 24 24 23 23 24 25 25 25 23 24 25 25 24 23 24 23 23 24 24 25 24 25 25 26
29 30 28 27 29 30 32 30 32 30 29 31 30 28 30 32 32 32 32 29 28 29 28 27 25 24 24 24 24 24 24 24 24 24 26 25 25 25 24 23 23 24 23 24 24 24 24 25 26
30 29 30 27 29 31 29 30 32 31 30 31 32 31 29 31 32 32 31 30 27 29 28 27 26 25 24 24 24 24 23 24 23 24 26 26 24 25 25 24 24 23 23 24 23 25 25 25 25
31 30 33 32 33 31 29 31 30 28 29 30 31 31 30 29 31 31 31 30 29 28 28 27 26 25 24 24 24 23 24 24 23 24 24 25 25 26 24 24 24 24 24 24 23 25 24 24 24
32 33 31 32 31 31 31 31 32 29 28 30 30 31 31 29 29 31 31 30 29 28 28 27 27 26 25 25 24 24 24 24 24 24 24 24 25 24 24 24 24 24 24 24 23 24 24 24 25
31 31 32 33 33 32 32 32 32 30 30 30 30 31 31 30 28 27 28 28 27 27 24 25 26 25 25 25 25 25 25 25 24 23 24 24 23 24 24 24 24 24 24 24 23 24 25 24 25
33 32 32 31 31 32 33 30 28 29 30 30 30 30 31 30 30 27 24 25 24 25 24 23 24 25 24 24 24 25 25 24 24 24 24 24 24 24 24 24 24 24 24 24 23 24 26 24 25

GFSSGP_925_temp_111.txt.gz
Temp
23 25 28 29 26 29 32 33 35 34 34 35 36 35 33 31 30 29 29 29 28 27 23 22 21 21 21 21 21 21 21 21 21 21 21 21 21 21 21 21 21 21 21 21 20 20 21 21 20
27 29 28 29 27 31 32 34 33 34 35 34 34 34 32 30 32 31 29 28 29 27 26 24 21 21 21 21 21 21 21 21 21 21 21 21 21 21 21 21 21 21 21 21 21 21 21 21 21
26 29 27 27 28 30 32 34 34 34 35 34 33 33 31 30 31 31 29 29 28 27 25 22 21 21 21 20 20 21 21 21 21 21 21 22 21 21 21 21 21 21 21 21 21 21 21 21 21
28 28 31 28 30 31 34 35 35 34 35 34 33 30 32 31 31 29 29 28 27 26 25 22 21 21 21 21 21 21 21 21 21 21 22 22 21 21 21 21 22 22 21 21 21 21 21 21 21
29 29 28 28 30 32 35 35 35 34 34 33 33 30 30 30 30 29 29 27 26 26 25 23 21 21 21 21 21 21 21 21 21 22 21 21 21 21 22 22 22 21 21 21 21 21 21 20 20
28 29 28 28 26 33 35 35 35 34 34 32 32 30 30 30 30 30 27 29 30 29 26 24 21 21 21 21 21 21 21 21 21 21 21 22 22 21 22 22 21 21 21 21 21 21 21 20 20
28 28 28 26 24 29 34 35 35 34 33 33 33 30 30 31 30 29 28 30 30 27 26 25 24 21 21 21 21 21 21 21 22 21 22 22 21 21 21 21 21 21 21 21 21 21 21 20 21
29 29 29 29 26 26 32 34 33 33 32 34 34 30 30 31 30 30 30 30 27 26 25 23 24 23 24 23 21 21 21 21 21 21 21 21 21 22 22 22 21 21 21 21 21 22 22 22 23
30 27 29 28 28 27 31 32 33 32 33 34 34 32 32 30 30 30 30 30 27 27 25 27 24 25 23 23 22 21 21 21 22 22 23 23 24 24 23 22 21 21 21 22 23 23 23 23 24
29 27 28 30 28 27 31 32 31 32 32 32 33 32 30 31 30 30 30 30 29 26 26 25 26 26 25 25 23 24 23 23 25 24 21 23 24 24 24 22 22 22 23 24 24 25 24 24 25
31 29 28 27 26 29 30 32 33 33 31 33 31 31 31 31 30 31 31 31 30 27 27 25 25 26 25 25 25 25 25 25 24 24 23 25 24 25 25 23 24 23 24 24 25 25 26 27 28
30 31 29 27 26 28 31 32 32 32 33 33 32 32 31 32 32 32 31 31 30 29 27 27 27 25 25 26 27 26 25 26 25 24 25 25 26 26 26 26 25 25 26 26 24 27 26 27 27
31 30 28 27 25 27 29 29 30 32 33 33 32 32 32 32 32 32 31 30 29 29 27 27 26 24 25 27 27 26 26 25 25 25 25 23 26 25 26 26 26 26 26 27 27 27 27 27 28
31 29 27 26 24 26 28 28 30 31 32 32 32 32 33 33 32 31 31 30 29 29 28 27 24 24 25 25 26 26 23 26 26 26 25 25 26 25 25 26 26 27 27 26 27 26 28 28 28
28 28 27 24 24 25 27 27 28 31 32 32 32 33 33 33 32 31 30 30 29 29 27 26 25 26 25 25 25 26 27 26 26 25 25 25 25 25 25 26 27 27 26 26 27 27 28 29 29
29 28 26 24 24 23 24 26 25 31 32 32 33 33 33 33 32 31 30 30 29 28 27 27 27 26 25 25 26 26 26 26 26 26 25 24 24 24 25 26 27 26 27 27 28 29 29 30 29
30 29 26 24 23 23 24 26 25 27 32 32 33 33 33 32 31 31 30 30 29 27 26 27 27 26 26 25 26 26 26 26 26 26 26 24 24 24 26 27 26 25 27 28 29 29 29 29 30
32 30 28 25 23 23 23 25 24 25 31 32 33 33 32 31 32 31 31 30 29 27 27 27 27 26 26 25 26 26 26 26 27 26 25 24 25 24 25 26 26 25 27 28 27 27 28 29 29
30 30 26 27 25 23 22 23 23 26 26 30 31 32 31 31 32 31 31 30 29 28 27 26 26 25 26 26 26 27 27 27 26 25 25 24 25 24 25 26 26 25 25 27 27 27 27 29 29
32 25 25 26 24 22 22 23 23 22 28 29 29 32 32 31 32 31 31 31 30 28 27 26 26 25 26 26 27 27 26 27 26 26 25 25 25 24 25 25 26 25 26 26 26 27 29 30 29
34 29 28 28 24 23 22 22 22 24 26 28 30 31 31 31 32 32 30 31 30 29 28 26 25 25 25 25 26 26 25 26 26 25 26 25 25 25 24 25 24 25 26 27 26 27 27 29 29
32 32 28 28 28 26 27 23 22 22 24 24 26 31 31 32 30 33 31 29 30 29 28 27 26 25 25 25 26 26 25 25 26 26 27 25 25 25 25 25 24 25 22 26 27 27 27 28 30
32 34 25 31 30 28 26 26 21 21 22 24 27 29 32 33 32 32 31 31 30 30 29 28 26 26 25 25 24 25 26 26 27 27 25 25 24 25 25 24 24 24 25 26 26 26 26 28 28
33 33 32 31 31 30 29 29 24 24 24 25 27 29 31 29 33 27 32 30 30 31 30 29 27 25 25 24 24 24 25 25 25 26 26 27 26 25 25 25 25 25 25 25 26 26 26 26 27
32 32 28 26 29 30 32 31 30 28 30 29 29 28 31 30 31 32 31 30 31 31 30 29 27 25 25 25 25 25 25 25 25 25 26 27 27 27 25 25 24 25 24 25 25 25 25 26 26
32 33 28 28 28 29 33 32 28 31 32 30 31 28 28 33 32 32 31 27 32 31 30 30 27 26 25 25 25 25 24 25 26 25 25 27 27 27 25 25 25 25 25 25 25 25 26 27 26
33 32 35 28 32 31 30 33 31 33 32 33 32 29 29 32 33 34 33 31 31 31 30 30 28 26 26 26 25 25 25 25 25 24 25 26 26 27 26 26 25 25 25 25 25 25 26 26 25
34 35 33 34 30 28 28 27 33 31 32 33 33 30 31 31 31 31 34 33 30 31 31 30 28 27 27 27 26 26 25 25 25 25 25 25 24 25 25 26 26 25 25 25 25 26 26 26 26
33 33 34 35 35 32 29 29 33 31 31 31 33 33 30 32 32 33 33 32 32 31 30 30 29 27 27 27 27 27 26 26 26 25 25 25 25 24 24 25 25 25 25 25 24 24 25 25 26
35 34 34 33 33 35 34 28 31 33 33 33 33 34 34 32 32 32 33 31 31 29 28 27 29 28 27 27 27 26 27 26 26 26 25 25 24 24 24 25 24 25 25 25 25 25 26 26 25

GFSSGP_925_temp_114.txt.gz
Temp
24 24 25 28 25 27 32 34 36 35 35 36 35 33 28 29 31 27 29 28 27 24 22 21 21 21 21 21 21 21 21 21 21 21 21 21 21 21 21 21 21 21 21 21 21 21 21 21 21
25 28 29 24 24 29 33 35 34 35 35 35 33 33 32 30 31 31 30 29 27 25 24 22 21 21 21 21 21 21 21 21 21 21 21 21 21 21 21 21 21 21 21 21 21 21 21 21 22
24 27 24 23 25 28 33 35 35 35 35 34 32 33 32 30 32 31 28 28 28 26 23 21 21 21 21 21 21 21 21 21 21 21 21 21 21 21 21 21 21 21 21 21 21 21 21 21 23
28 29 28 24 26 32 35 34 35 35 35 33 33 31 33 32 31 29 27 25 25 25 23 22 21 21 21 21 21 21 21 21 21 21 21 21 21 21 21 21 21 21 21 21 21 21 21 21 23
29 28 25 25 29 32 36 35 35 34 33 30 33 30 31 31 30 29 28 27 26 25 23 21 21 21 21 21 21 21 21 21 21 22 21 21 21 22 21 21 21 21 21 21 21 21 21 22 23
27 27 27 28 24 28 35 36 33 32 32 30 31 30 30 31 30 30 29 28 27 26 24 22 21 21 21 21 21 21 21 21 21 21 22 21 21 22 21 21 21 21 21 21 21 21 21 23 23
27 27 29 26 25 26 35 36 33 34 33 32 32 30 30 32 30 30 29 27 27 27 25 23 22 21 21 21 21 21 21 21 21 21 22 21 22 22 21 21 21 21 21 21 21 22 23 24 24
30 28 28 28 25 25 33 33 32 34 32 34 33 30 30 31 31 30 29 27 28 25 24 24 23 23 22 21 21 21 22 21 21 22 21 21 21 21 22 22 21 21 21 21 22 22 23 24 24
31 27 28 28 26 24 28 32 30 32 32 33 33 32 33 32 31 29 27 27 26 24 23 25 25 23 23 22 21 21 22 22 22 22 23 23 23 23 22 22 22 22 23 24 24 24 24 24 25
29 27 29 30 29 26 29 28 31 32 34 33 32 33 32 32 32 31 29 29 27 26 25 25 25 24 24 24 22 22 22 22 22 23 22 21 24 23 23 22 23 24 24 24 24 24 24 25 25
30 28 30 30 29 26 28 32 34 33 31 33 31 32 33 32 31 32 31 29 27 26 26 25 26 24 25 25 23 23 23 22 21 24 24 23 24 24 23 24 24 24 23 24 24 23 25 23 25
30 30 29 29 28 25 28 32 33 33 32 34 33 33 33 32 32 32 32 29 28 27 26 26 25 25 26 26 25 23 24 24 23 23 22 21 25 25 25 25 25 25 25 26 25 26 27 27 28
30 30 29 28 28 26 25 31 31 29 32 34 33 33 32 33 32 33 32 29 28 27 26 25 25 25 26 26 26 26 25 25 22 21 24 25 26 26 26 26 25 24 22 24 25 27 27 27 28
30 30 29 26 27 26 29 29 32 30 34 33 33 32 33 33 33 32 32 31 29 28 26 25 25 25 26 26 25 25 25 25 24 25 24 25 25 26 26 26 26 24 26 26 27 27 27 27 28
31 29 27 26 25 27 29 28 31 33 34 33 33 33 33 34 33 32 31 30 30 29 26 25 25 25 25 25 26 26 25 26 25 25 25 25 25 25 25 26 27 27 27 27 27 27 29 28 28
30 27 25 25 24 24 25 27 29 33 33 33 33 33 33 33 32 32 31 31 30 28 27 26 27 26 25 26 25 26 26 26 26 25 25 25 25 25 26 27 25 27 27 27 27 28 28 29 28
31 27 24 23 22 22 24 27 28 30 33 33 33 33 33 32 32 32 31 31 29 27 27 27 27 26 25 25 25 26 26 26 26 26 25 24 24 24 25 26 27 27 26 27 27 28 28 29 29
29 31 26 24 22 22 23 23 28 26 28 33 33 33 33 32 32 32 31 30 28 27 27 27 26 26 26 25 25 26 25 26 26 26 25 25 24 24 25 26 26 25 25 26 27 28 28 28 29
32 29 25 25 23 23 21 21 23 25 26 30 33 32 31 32 32 32 31 29 28 27 27 27 26 26 25 25 26 26 26 26 25 25 25 25 25 25 25 25 26 26 24 26 26 27 27 28 29
32 31 25 24 22 23 21 22 23 23 24 28 31 32 31 30 27 32 31 30 29 27 27 26 25 25 26 26 26 26 26 26 25 25 25 24 25 25 25 25 23 23 25 26 26 26 27 28 29
32 32 27 25 22 23 22 21 21 22 23 24 27 31 31 28 25 32 31 31 28 26 26 26 25 26 25 25 25 26 25 25 25 25 25 25 25 25 25 25 24 24 24 26 26 26 27 27 28
33 28 25 23 23 24 24 23 21 22 22 22 24 30 28 25 32 31 31 31 30 26 26 26 25 25 25 25 25 25 25 26 26 26 26 25 25 25 25 25 24 26 27 26 26 27 27 27 27
30 31 27 25 23 25 24 24 22 21 21 22 24 29 29 29 31 28 32 30 29 29 27 26 25 25 25 24 25 25 26 26 26 26 25 25 25 25 26 25 24 24 24 25 26 26 26 26 26
33 30 27 23 21 24 27 27 24 22 24 26 27 28 29 30 31 29 26 30 30 29 28 26 26 25 25 24 25 24 24 25 25 26 25 25 25 25 25 25 25 25 24 25 26 26 26 26 23
33 32 28 25 26 27 29 29 27 26 27 28 27 28 30 29 30 30 28 27 29 28 28 27 25 25 25 24 25 24 24 23 25 25 26 25 26 26 25 25 25 24 24 25 25 25 25 26 26
33 33 31 28 27 27 27 28 27 29 29 29 30 28 30 30 29 28 29 27 28 27 28 28 25 25 25 25 25 24 24 25 25 25 25 25 25 26 25 25 24 25 25 25 25 25 26 26 26
34 32 35 31 24 28 23 22 30 30 29 28 28 28 28 26 26 28 29 28 26 26 27 27 25 25 25 25 25 25 25 25 25 25 26 26 25 25 25 25 25 25 25 25 25 25 25 26 25
35 36 33 31 27 27 25 25 23 29 30 31 30 30 30 29 24 26 28 29 27 27 28 27 26 26 26 26 25 25 25 25 25 25 24 24 24 25 23 25 25 25 25 25 25 25 25 26 26
33 33 34 35 32 28 27 30 26 26 22 31 30 31 31 31 30 28 26 27 27 30 30 27 27 27 26 27 26 26 26 25 25 25 25 25 24 25 23 25 25 25 25 25 25 25 25 25 25
34 34 34 33 33 34 33 32 27 26 27 32 30 30 31 31 32 31 31 27 28 28 27 27 28 27 27 27 27 26 26 26 26 26 25 25 24 24 24 24 25 25 25 25 25 25 25 25 26

GFSSGP_925_temp_117.txt.gz
Temp
25 24 23 23 23 23 27 32 33 32 31 33 31 31 30 29 28 23 25 23 22 21 21 21 21 21 21 21 21 21 21 21 21 21 21 21 21 21 21 21 21 21 21 21 21 21 21 21 21
25 25 24 22 24 27 29 32 31 30 31 32 31 30 28 27 28 26 25 23 23 21 21 21 21 21 21 21 21 21 21 21 21 21 21 21 21 21 21 21 21 21 21 21 21 21 21 21 21
25 25 23 22 24 27 30 32 31 31 32 31 30 30 29 27 28 27 25 25 23 22 22 21 21 21 21 21 21 21 21 21 21 21 21 21 21 21 21 21 21 21 21 21 21 21 21 21 21
25 25 21 23 25 29 32 32 33 31 31 31 30 29 29 28 27 25 25 24 23 23 22 22 21 21 21 21 21 21 21 21 21 21 21 21 21 21 21 21 21 21 21 21 21 21 22 22 23
27 22 23 23 27 29 33 30 30 30 31 30 30 28 26 26 26 27 26 24 23 22 21 21 21 20 21 21 21 21 21 21 21 21 21 21 21 21 21 21 21 21 21 21 21 23 23 24 24
25 24 23 24 26 27 30 26 30 29 30 30 29 27 26 27 27 27 26 24 23 22 21 21 21 21 21 21 21 21 21 21 21 21 21 21 21 21 21 21 21 21 21 21 23 24 24 24 24
26 24 26 26 25 26 29 26 29 29 30 30 29 26 27 28 27 26 26 25 24 23 22 21 21 21 21 21 21 21 21 22 22 21 21 22 21 21 21 21 21 21 21 21 24 24 25 24 24
26 24 27 26 25 25 28 30 30 31 30 31 30 27 26 28 28 27 26 25 24 23 23 23 22 22 21 21 21 21 21 22 22 22 21 21 21 21 21 22 22 22 21 22 23 24 25 25 25
29 24 26 25 26 26 26 29 29 32 31 31 31 29 29 29 27 26 25 24 25 24 23 23 22 22 22 21 21 21 22 22 22 22 22 22 22 22 22 23 22 22 21 22 24 24 25 25 25
27 25 27 24 27 26 25 28 31 28 29 30 30 30 30 27 27 26 25 23 24 24 24 23 23 23 23 22 22 22 22 22 22 22 22 22 22 22 23 24 23 23 23 23 23 23 24 24 25
29 26 29 26 27 26 25 26 31 27 28 30 30 30 30 28 27 27 25 24 23 25 24 24 24 23 23 23 22 22 22 22 23 23 23 24 23 24 24 24 24 24 24 23 23 23 23 25 24
28 30 30 28 27 26 25 25 26 29 30 31 31 31 31 29 27 28 26 25 25 24 24 25 25 24 24 23 23 23 23 23 22 23 24 24 23 24 25 24 23 24 24 25 24 24 27 26 26
29 29 28 28 26 25 23 24 27 29 31 32 32 32 30 29 30 28 26 25 26 25 25 25 25 25 25 23 24 21 23 25 24 23 24 24 24 24 24 23 23 25 25 26 26 26 26 26 27
28 25 27 26 25 25 24 23 27 29 30 31 31 31 30 29 30 28 27 26 25 25 25 25 25 25 25 25 24 23 23 24 24 24 24 24 25 25 25 25 25 26 26 26 27 27 27 27 28
28 26 26 25 24 25 23 23 28 29 31 31 31 30 31 30 30 27 27 26 25 25 25 25 25 25 25 26 25 25 24 23 23 24 24 24 25 25 25 24 24 25 26 26 27 26 27 27 28
26 25 24 24 24 23 24 25 29 29 31 30 30 31 32 31 30 29 29 27 26 26 25 25 25 25 25 25 25 25 25 24 24 24 24 25 25 25 24 26 26 24 25 26 26 27 27 27 27
24 24 23 23 22 23 23 26 27 27 31 30 30 31 31 30 29 30 29 26 27 26 26 25 25 25 25 25 25 25 26 25 25 25 25 25 25 25 24 25 24 26 26 26 26 27 28 28 27
23 24 24 23 22 22 22 22 23 25 26 30 30 31 28 30 28 30 27 27 27 27 26 25 26 25 26 25 25 25 25 25 25 25 25 25 25 24 25 25 26 26 26 26 27 27 28 27 28
30 27 24 23 22 22 22 22 22 23 24 25 29 30 28 29 30 30 27 27 27 27 26 26 26 25 25 25 25 25 25 25 25 25 25 25 25 25 24 25 26 26 26 26 26 27 27 27 28
27 26 23 23 22 22 21 22 22 23 23 24 24 29 29 28 28 28 27 27 27 27 26 26 26 26 26 25 25 25 25 25 25 25 25 25 25 25 24 25 26 26 26 25 25 27 26 27 27
25 27 24 24 22 22 21 22 21 23 22 23 24 26 29 28 26 27 28 27 27 26 26 26 26 25 25 25 25 25 25 25 25 25 25 25 25 25 24 25 26 25 25 25 26 26 26 26 26
25 24 25 23 23 23 22 22 21 22 21 22 23 23 27 26 28 27 28 26 26 26 26 25 25 25 24 24 25 25 25 25 25 25 25 25 25 25 25 24 24 24 25 25 26 25 26 26 25
25 24 25 24 22 22 22 22 22 21 21 22 22 24 26 27 29 27 28 26 26 26 25 26 25 25 25 24 24 25 25 25 25 26 25 25 25 25 25 25 24 25 25 26 26 25 26 26 26
27 25 23 22 22 22 24 23 22 21 22 23 24 24 25 25 26 28 28 27 26 25 25 25 25 25 25 24 24 24 25 25 25 25 25 25 25 25 25 25 25 25 25 25 25 25 26 26 26
27 25 23 23 23 23 24 24 24 23 24 25 26 24 24 23 25 26 25 26 26 25 25 25 25 25 25 24 24 24 24 25 24 25 25 25 25 25 25 25 24 25 25 25 25 25 25 25 26
26 26 23 25 25 24 22 23 25 25 25 26 26 26 26 24 28 27 26 27 27 25 25 24 25 25 25 25 24 24 24 25 25 25 25 25 25 25 25 25 25 24 24 25 25 25 25 25 25
31 27 29 22 23 23 23 23 22 25 26 26 26 26 26 27 27 27 25 28 26 27 27 25 24 24 25 25 24 24 24 24 24 25 25 25 25 25 25 25 25 25 25 25 24 25 25 25 25
32 32 29 25 24 24 24 21 22 23 27 27 27 27 27 25 24 25 26 26 26 26 27 26 25 25 25 25 24 24 24 24 24 24 25 24 25 25 25 24 24 25 25 25 25 25 25 25 25
29 29 29 27 26 24 25 24 23 24 25 24 26 28 28 26 25 25 24 27 27 27 27 26 25 25 25 25 25 25 25 24 24 24 24 24 25 24 26 25 25 25 25 25 24 24 25 25 25
31 30 29 25 26 27 24 26 28 25 25 26 25 27 28 27 26 26 26 26 26 26 27 25 25 25 25 25 25 25 25 25 25 25 25 24 24 25 25 25 24 25 24 24 24 24 25 24 25

GFSSGP_925_temp_123.txt.gz
Temp
22 22 22 21 23 22 26 28 29 28 28 29 28 27 25 24 25 23 22 22 22 21 21 21 21 21 21 21 21 21 21 21 20 21 21 21 21 21 21 21 21 21 21 21 21 21 21 21 21
23 23 22 21 23 25 25 28 28 28 28 28 27 27 25 23 22 20 20 21 22 21 21 21 21 21 21 21 21 21 21 21 20 20 20 21 21 21 21 21 21 21 21 21 21 21 21 21 21
23 23 22 22 24 25 26 28 27 28 29 28 27 27 25 22 22 21 22 21 21 21 21 21 21 21 21 21 21 21 21 21 21 21 20 21 21 21 21 21 21 21 21 21 21 21 21 21 21
23 21 21 23 25 26 28 27 28 28 28 27 26 24 25 23 23 22 21 21 22 21 21 21 21 21 21 21 21 21 21 20 21 21 21 21 21 21 21 21 21 21 21 21 21 22 22 21 21
22 20 22 23 26 26 29 28 28 27 27 27 26 24 23 23 24 21 21 21 22 21 21 21 21 21 21 21 21 21 21 21 21 21 21 21 21 21 21 21 21 21 21 21 21 21 21 21 21
22 21 22 25 26 26 28 28 29 26 26 25 24 23 22 22 21 20 21 21 21 21 21 21 21 21 21 21 21 21 21 21 21 21 21 21 21 21 21 21 21 21 21 21 22 22 22 22 22
23 22 23 24 25 27 27 29 27 27 26 26 26 22 21 21 21 21 21 21 21 21 21 21 21 21 21 21 21 21 21 21 21 21 21 21 21 21 21 21 21 21 21 21 22 22 22 22 22
25 24 24 24 25 24 26 28 27 27 26 27 26 22 21 21 20 21 21 21 20 20 21 21 21 21 21 21 21 21 21 21 21 21 21 21 21 21 21 21 21 21 21 23 23 23 23 23 22
24 23 23 23 23 25 26 28 28 28 27 27 27 25 23 21 21 20 20 20 20 20 21 21 21 21 21 21 21 21 21 21 21 21 21 21 21 21 21 21 21 21 22 23 23 23 23 23 23
24 23 24 24 24 23 25 28 27 27 27 26 25 25 23 21 21 20 20 19 20 20 21 21 21 21 21 21 21 22 22 22 22 21 22 22 22 21 22 21 22 23 23 24 24 24 24 24 23
25 26 26 23 25 24 24 27 28 27 26 26 24 24 23 22 21 21 21 20 21 21 20 21 21 21 21 21 21 22 22 22 22 22 22 22 22 23 23 23 24 24 24 24 24 24 24 24 24
26 28 25 25 25 25 25 26 26 27 27 27 25 25 24 23 22 22 21 21 21 21 21 21 21 21 21 21 22 22 22 22 22 22 22 23 23 23 23 23 23 24 23 24 24 25 25 25 25
26 27 25 24 25 25 24 24 23 25 27 27 26 25 24 24 23 23 22 22 22 21 21 21 21 22 22 22 22 22 22 22 22 23 23 23 24 24 24 23 23 24 24 24 24 25 25 25 26
26 24 24 23 22 23 23 21 23 26 26 27 26 25 24 24 23 23 22 22 22 22 22 22 22 22 22 22 22 22 23 23 23 23 23 23 24 24 24 23 24 24 24 24 25 25 25 25 26
25 24 23 23 23 22 24 22 22 24 26 26 26 26 25 24 24 23 23 23 23 23 23 23 23 23 23 23 22 22 23 23 23 23 23 24 24 24 24 24 24 24 25 25 26 26 26 26 26
25 25 24 23 23 23 23 23 23 23 27 27 26 26 25 25 25 24 23 24 23 24 23 23 23 23 23 23 23 23 24 23 24 24 24 24 24 24 24 24 24 25 25 25 26 26 27 27 26
21 23 23 23 22 22 23 23 21 23 27 27 27 27 26 25 25 24 24 24 23 24 24 24 24 24 24 23 24 23 24 24 24 24 24 24 24 24 24 24 25 25 25 25 26 25 27 27 27
23 23 24 22 22 21 23 22 22 21 23 26 27 26 26 25 24 24 24 24 24 24 24 24 25 24 24 24 24 23 23 24 24 24 24 24 24 24 25 24 25 24 25 26 26 25 26 27 27
24 24 23 22 21 21 22 22 22 20 21 23 23 26 25 25 25 24 24 24 23 24 24 24 24 24 23 23 23 23 23 24 24 24 23 23 25 25 25 25 25 25 25 25 26 26 25 26 26
25 23 23 23 21 21 21 22 21 22 22 22 23 25 26 25 24 24 23 23 24 24 24 24 24 24 23 24 24 24 24 24 23 23 23 24 25 25 24 24 25 24 25 25 26 26 25 25 26
25 24 23 23 22 22 21 21 21 21 22 22 23 23 26 25 24 23 23 23 23 23 24 24 24 25 25 25 24 24 24 24 24 24 24 24 24 25 25 24 25 25 25 25 26 26 26 25 25
24 26 25 24 22 23 22 22 21 20 21 22 22 22 25 24 24 24 24 23 23 23 24 25 24 24 24 24 24 24 24 24 24 24 24 24 24 24 24 24 25 24 25 25 25 25 26 26 25
25 25 24 24 22 23 22 22 23 21 21 22 22 22 23 25 24 24 24 23 23 23 24 25 24 24 24 25 25 25 24 24 24 24 24 24 24 24 24 24 24 25 25 25 25 25 26 25 25
25 22 22 22 22 21 23 22 23 21 22 23 23 24 23 24 24 24 25 24 23 23 24 25 24 25 25 25 24 24 24 24 24 24 24 24 24 24 24 24 24 24 24 24 25 25 25 25 25
23 22 21 22 22 21 21 22 23 24 23 24 23 24 23 24 25 24 24 23 23 23 23 24 23 24 24 24 24 24 24 24 24 24 24 24 24 24 24 24 24 24 24 24 24 25 25 25 25
22 23 23 23 23 23 22 23 23 25 26 25 25 25 23 23 25 24 23 23 23 23 23 23 23 24 24 24 24 24 24 24 24 24 25 25 24 24 24 24 24 24 24 24 24 24 24 25 25
24 24 24 21 21 22 22 23 24 24 25 24 25 25 23 23 24 23 24 23 23 23 23 23 24 24 24 24 25 24 24 24 24 25 24 24 24 24 24 24 24 24 24 24 24 24 24 24 24
25 24 23 21 23 23 23 22 23 24 23 23 24 24 24 23 22 23 24 24 23 23 23 23 24 25 24 24 24 24 24 24 24 24 24 24 24 24 24 24 24 24 24 23 23 24 24 24 24
26 25 21 21 21 22 24 23 22 24 23 22 23 24 24 24 22 23 22 24 23 23 23 23 24 24 24 24 24 24 24 24 24 24 24 24 24 24 24 25 24 24 24 24 24 24 24 24 24
27 27 23 22 25 21 23 25 23 23 22 23 23 24 25 25 24 22 23 23 23 23 23 23 23 24 24 24 23 24 24 23 23 24 24 24 24 24 24 24 24 24 24 24 24 24 24 24 24

GFSSGP_925_temp_129.txt.gz
Temp
21 21 21 22 27 28 28 28 29 28 27 29 28 28 27 25 26 27 22 21 22 22 21 21 21 21 21 21 21 21 21 20 20 20 21 20 20 20 20 20 20 21 21 21 22 21 21 21 21
21 21 22 23 28 29 28 29 29 28 29 29 27 27 26 24 23 22 22 21 22 22 22 21 21 21 21 21 21 21 20 20 20 20 21 21 21 21 21 21 21 21 22 21 21 21 21 21 21
22 22 23 25 27 28 28 28 29 29 29 28 27 26 25 23 23 23 22 21 22 21 21 21 21 21 21 21 21 21 20 21 21 21 20 20 20 21 21 20 21 21 21 21 21 21 21 21 21
23 23 24 26 28 28 28 29 29 28 28 27 27 25 24 24 24 22 21 21 22 21 22 21 21 21 22 21 20 21 21 21 21 21 21 21 21 21 21 21 21 21 21 21 21 21 21 21 21
22 23 26 27 27 28 29 29 29 29 27 27 27 25 24 23 22 21 21 21 22 21 22 22 21 21 21 21 20 21 21 21 21 21 21 20 21 20 21 21 21 21 21 21 22 22 21 21 21
24 24 27 26 26 28 28 29 29 27 27 26 26 26 23 22 22 21 21 21 22 22 22 22 21 21 21 21 21 20 21 21 21 21 21 21 21 21 21 21 21 21 21 21 21 21 21 21 21
26 25 25 26 26 27 27 29 28 28 27 26 27 25 22 22 22 21 21 21 21 21 21 21 21 21 21 21 21 21 22 22 22 21 21 21 21 21 21 21 21 21 21 21 21 22 21 21 21
25 26 25 25 25 26 27 28 28 28 26 27 27 25 24 23 21 21 21 21 21 21 21 21 21 21 21 21 21 22 22 22 21 21 21 21 21 21 20 21 21 21 21 21 22 22 22 22 21
26 25 24 24 24 24 26 28 28 28 27 27 26 27 25 21 21 22 21 21 21 21 21 20 21 21 21 22 22 22 22 22 21 21 21 21 21 21 22 21 21 21 21 22 22 22 22 22 22
27 27 27 26 24 23 25 27 26 27 27 25 24 24 22 22 22 23 23 22 21 21 21 20 20 21 21 22 22 22 21 22 21 21 21 21 20 20 21 21 21 22 22 23 23 23 23 23 23
26 27 26 26 25 24 25 27 28 27 27 26 25 24 24 23 23 23 23 22 21 21 21 20 21 21 21 21 22 22 21 22 21 22 22 22 21 21 21 21 21 22 23 23 23 23 23 23 23
28 26 27 25 25 24 25 27 27 27 26 27 26 25 24 24 24 24 24 22 22 21 21 21 21 21 21 22 22 22 22 21 21 22 22 22 21 21 21 22 23 23 24 24 24 23 24 24 24
28 26 24 25 25 24 24 24 26 25 27 26 25 25 25 25 24 24 24 23 22 22 21 21 20 21 21 21 22 22 22 21 22 22 22 22 22 22 22 23 24 24 24 24 24 25 24 24 24
26 25 25 25 25 24 23 22 24 23 26 26 25 25 25 25 25 24 23 23 22 22 21 21 20 21 21 22 22 22 22 22 22 22 23 23 23 23 23 24 24 24 24 24 25 25 24 25 25
26 25 25 24 24 23 23 21 22 21 25 26 25 25 25 25 24 24 24 23 23 22 22 21 21 20 21 22 22 22 22 22 22 22 23 23 23 24 24 24 24 24 25 25 25 25 26 25 25
26 26 26 23 24 24 24 23 21 21 22 26 26 25 25 26 25 24 24 23 23 23 22 21 22 20 20 21 22 22 22 22 23 23 23 23 23 24 24 24 24 25 25 25 25 25 25 25 25
26 27 26 24 23 23 24 24 23 21 22 25 26 26 26 26 25 25 24 24 23 22 22 21 21 20 20 21 21 22 22 22 23 23 23 23 23 24 24 24 24 25 25 25 25 24 25 25 25
27 26 25 25 23 23 23 22 21 21 21 22 26 27 27 27 27 25 25 24 23 22 22 22 21 21 22 21 21 21 21 22 23 23 23 23 24 24 24 24 25 25 24 24 24 25 26 25 25
28 27 26 24 23 24 23 23 22 21 21 22 25 27 27 27 27 26 25 24 23 23 22 22 21 21 20 20 21 21 22 22 22 23 23 23 24 24 24 24 25 25 25 25 25 25 25 24 25
27 27 25 25 23 24 23 24 22 22 23 25 25 27 27 28 27 26 25 24 24 23 23 22 21 22 22 22 22 22 22 22 22 22 23 23 24 24 24 24 25 25 25 25 25 25 25 24 25
27 27 27 27 24 23 23 25 23 22 21 23 25 26 27 28 27 27 25 25 24 24 23 22 21 22 23 22 23 23 23 23 23 23 22 23 23 23 23 24 25 25 25 24 25 25 26 26 24
28 27 27 25 26 26 25 24 24 24 23 22 25 26 27 27 27 28 26 25 24 24 23 22 22 23 23 23 23 23 24 24 23 23 23 22 23 23 23 24 24 24 25 25 25 25 25 26 26
28 27 26 26 26 25 23 24 26 24 24 23 23 25 27 27 28 27 26 26 25 24 23 23 22 23 22 24 23 23 24 24 23 23 23 23 23 23 23 23 24 24 24 24 25 25 25 25 25
27 26 25 25 25 25 26 26 28 23 25 26 25 26 27 27 28 28 27 26 25 24 23 23 22 22 23 23 24 24 24 23 23 23 23 23 23 23 23 24 24 24 24 24 23 24 25 25 25
28 28 26 25 25 26 25 24 28 27 27 28 26 26 27 27 28 27 26 26 25 24 24 23 22 22 21 22 22 23 24 24 24 24 23 23 23 23 23 24 24 23 24 24 24 24 24 25 23
28 29 28 26 26 27 24 26 28 27 27 28 27 27 26 27 28 27 26 26 25 24 24 23 22 22 22 22 22 22 24 23 23 23 23 23 23 24 24 24 24 24 24 23 23 23 23 24 23
26 27 27 26 25 26 27 27 27 27 26 26 26 26 26 26 27 27 27 26 25 25 24 24 23 22 22 22 22 23 23 24 23 24 24 23 24 23 24 24 24 23 24 24 23 23 23 23 24
28 28 27 26 26 27 28 27 27 25 24 25 26 26 26 25 26 27 27 26 26 25 25 24 23 23 23 22 22 22 22 24 23 23 24 23 24 24 23 23 23 23 23 24 23 23 23 23 23
26 27 27 27 27 27 28 28 25 23 23 24 26 26 26 24 25 25 26 26 25 25 25 24 23 23 23 22 22 22 22 22 24 23 23 24 24 24 23 24 23 23 22 23 23 23 23 22 23
27 27 29 29 28 26 27 28 24 23 24 25 26 27 27 26 25 24 24 25 25 25 24 23 24 23 23 23 22 22 22 22 22 22 23 23 23 23 24 23 22 22 23 23 23 22 23 22 23

GFSSGP_925_temp_132.txt.gz
Temp
22 24 24 26 30 33 32 31 33 31 31 32 32 31 31 29 30 28 27 26 26 25 23 22 21 21 21 21 21 21 20 20 20 21 21 20 21 21 21 21 21 21 21 21 21 21 21 21 21
25 24 25 29 32 33 32 32 32 32 32 32 31 31 31 28 28 28 27 26 26 26 25 24 21 21 21 21 21 21 21 20 20 21 21 20 20 21 20 21 21 21 22 21 21 22 21 21 21
24 24 28 31 33 33 32 33 32 32 32 31 30 31 30 28 28 28 26 25 26 26 26 22 21 21 21 21 21 21 21 21 21 20 20 20 20 21 21 21 21 21 21 21 21 21 21 21 21
26 25 27 30 31 31 33 33 33 31 31 31 31 28 28 28 28 27 25 25 26 26 25 22 21 21 21 21 21 21 21 21 21 21 21 21 21 21 20 21 21 21 21 21 21 21 21 21 21
27 26 28 31 31 32 33 33 33 32 31 30 31 29 27 26 26 26 25 26 26 27 25 23 21 21 21 21 21 21 21 21 21 21 21 21 21 21 21 21 21 21 22 22 21 21 21 21 21
29 29 30 30 30 31 32 33 32 31 31 30 30 29 27 26 26 26 26 26 27 27 26 23 21 21 21 21 21 21 21 21 21 21 21 21 21 21 21 21 21 21 21 21 21 21 21 21 20
30 30 29 29 29 30 31 32 31 31 31 31 31 29 27 28 26 26 26 26 26 26 26 25 24 22 21 21 22 22 22 21 22 21 21 21 21 21 21 21 21 21 21 21 21 21 21 21 21
30 29 27 28 29 29 30 31 31 31 30 31 32 29 27 27 26 25 26 26 26 26 25 24 25 25 24 23 22 22 22 21 21 21 21 21 21 21 22 23 21 21 21 21 22 22 22 22 22
30 28 26 27 26 28 30 30 30 31 30 31 30 31 29 26 26 26 26 26 25 25 25 23 25 24 22 22 22 22 22 21 21 21 21 23 24 24 23 22 21 21 21 22 22 22 23 23 22
31 30 28 28 26 27 28 30 28 30 30 29 29 29 27 26 27 27 27 27 26 25 25 24 25 23 22 23 22 22 21 22 22 21 23 24 24 23 24 22 22 22 23 23 23 23 23 24 26
31 29 30 28 27 24 28 30 31 31 30 31 29 28 28 27 27 28 28 27 27 26 25 24 22 23 23 22 23 22 22 22 22 22 23 23 24 24 24 24 24 24 23 25 25 25 26 25 26
29 30 30 27 27 27 28 30 29 31 30 31 31 30 29 29 29 29 28 27 26 25 25 25 22 22 21 23 23 23 24 24 24 23 22 23 24 24 25 25 24 25 25 25 25 26 25 25 25
31 29 28 28 28 25 26 27 29 27 30 31 31 30 29 30 29 28 28 27 26 26 25 25 23 21 21 21 24 24 24 24 23 23 22 24 25 24 25 24 25 25 26 26 26 26 26 26 27
31 30 28 28 28 26 23 24 25 24 30 30 30 30 30 30 29 28 27 27 26 26 25 25 24 22 22 21 22 23 24 23 24 24 23 23 24 24 25 25 26 25 26 26 26 26 27 27 27
30 29 29 28 28 26 23 22 23 23 28 29 30 30 30 30 29 28 27 27 26 26 25 24 24 23 22 22 22 23 24 24 24 24 23 23 24 24 24 25 26 26 25 25 26 26 27 28 28
30 30 29 27 27 27 26 23 23 22 25 29 30 30 30 30 29 28 27 27 26 26 25 24 25 24 23 23 23 24 24 24 24 24 24 23 23 23 24 26 26 25 26 26 27 28 28 28 28
31 31 30 27 27 27 27 27 23 23 22 26 30 31 30 30 29 28 28 27 27 26 24 24 24 24 23 22 23 23 23 24 24 24 24 23 24 23 25 26 25 25 26 27 28 27 28 28 29
32 31 30 29 27 27 27 26 26 22 22 23 29 31 31 31 30 28 28 27 27 26 24 23 22 22 22 22 22 23 24 24 24 24 25 23 24 24 24 25 25 26 27 27 27 27 27 28 29
32 31 30 29 27 28 28 28 26 25 23 22 26 30 31 31 31 29 28 27 27 26 25 24 23 22 23 23 24 24 25 24 24 25 24 23 24 24 23 25 25 26 27 26 26 27 27 28 27
32 31 30 29 28 28 28 28 26 25 24 22 24 28 31 32 32 30 29 28 27 26 25 23 23 22 23 24 25 25 25 25 25 25 24 24 24 24 24 24 25 25 27 26 26 26 28 28 28
32 32 31 30 28 28 28 28 26 25 25 22 26 29 32 32 32 31 29 29 28 26 26 24 24 23 23 24 24 24 23 23 24 24 25 24 24 24 23 24 24 25 25 27 26 26 27 29 28
32 32 30 29 30 30 29 30 28 25 25 23 29 29 32 32 32 32 30 29 28 27 26 25 24 23 23 23 24 25 25 26 26 25 25 25 24 24 24 23 24 24 25 25 26 26 26 26 29
32 31 31 30 30 30 31 30 29 26 27 27 28 30 31 32 32 32 31 29 29 28 26 25 24 23 24 23 25 23 25 26 25 25 24 25 23 24 24 23 23 24 25 25 25 25 25 27 27
32 31 30 30 31 30 32 31 31 29 29 31 29 30 31 33 32 32 31 30 29 28 27 26 24 23 24 23 23 24 25 26 26 25 25 25 25 24 24 24 23 24 24 24 25 24 24 25 25
31 31 30 30 30 31 31 30 32 31 31 31 31 30 30 32 33 32 31 30 29 28 27 26 25 24 23 24 24 24 24 24 24 24 25 26 26 26 25 24 24 24 23 24 24 24 24 25 26
31 32 32 28 28 29 30 29 31 31 31 31 32 33 29 31 33 33 31 30 29 28 27 27 25 24 24 24 24 24 23 23 24 24 26 26 26 26 26 24 24 24 24 24 24 25 25 25 26
32 31 34 31 31 31 32 32 32 32 30 30 31 31 30 30 32 33 31 30 29 28 27 27 26 25 24 24 24 24 24 24 26 26 24 25 25 26 25 24 24 24 24 24 24 25 25 25 25
31 33 31 31 27 28 32 32 31 29 29 29 30 30 30 29 27 32 32 30 30 29 28 27 26 25 25 25 24 24 24 24 24 24 24 25 25 24 25 24 24 24 24 24 24 25 25 24 25
31 31 31 31 30 26 28 28 29 27 28 29 29 30 29 29 27 31 31 30 30 29 28 27 26 26 25 25 25 25 25 25 24 23 24 24 24 24 24 24 24 24 24 24 24 24 25 25 25
31 31 32 29 26 31 23 30 29 27 28 29 29 30 30 26 26 29 29 30 29 29 29 28 27 26 26 26 25 25 25 25 25 24 24 24 23 24 23 23 24 24 24 24 24 24 25 24 25

GFSSGP_925_temp_135.txt.gz
Temp
23 24 27 29 29 32 33 33 34 33 33 35 34 34 33 32 31 29 30 29 28 26 23 22 21 22 21 21 21 21 21 20 21 21 21 21 21 21 21 21 21 22 21 21 21 21 22 21 21
27 28 28 31 28 32 32 34 33 33 34 34 34 34 33 30 32 31 29 29 28 28 26 23 21 21 21 20 21 21 21 21 21 21 21 21 21 21 21 21 21 21 21 22 21 21 21 21 21
26 28 30 28 28 32 32 34 34 34 34 33 33 33 33 30 32 31 29 29 29 24 25 22 21 21 21 21 21 21 21 21 21 21 21 21 21 21 21 21 21 21 21 21 21 21 21 21 21
29 28 29 28 32 35 35 34 35 34 33 34 33 30 32 31 31 29 29 29 29 26 25 22 21 21 21 21 21 21 21 21 21 21 21 21 21 21 21 21 21 21 21 21 21 21 21 21 21
29 25 31 24 34 35 35 36 35 33 32 33 33 31 30 30 30 29 29 30 28 27 25 23 21 21 21 21 21 21 21 21 21 21 21 21 21 21 21 22 21 21 21 21 21 21 21 21 21
31 33 25 32 32 34 35 35 33 32 34 33 32 31 30 30 29 29 30 30 29 28 27 24 21 21 21 21 22 21 21 21 21 21 21 21 21 21 21 21 21 21 21 21 21 21 21 21 20
31 29 30 31 32 32 33 35 33 32 33 34 34 30 31 31 29 29 30 30 30 28 28 26 24 22 21 22 21 21 21 21 21 21 21 21 21 21 21 21 21 21 21 21 21 21 21 21 21
33 31 25 31 29 30 33 33 34 31 33 35 35 31 30 31 30 29 30 30 29 29 28 27 26 25 23 22 21 21 22 21 21 21 21 22 22 22 22 23 21 21 21 21 21 22 22 23 23
34 27 24 26 27 26 33 32 33 33 33 34 34 33 32 30 30 30 30 29 29 28 26 26 26 24 23 23 22 21 21 21 22 22 23 24 25 25 23 23 21 21 22 23 23 24 23 23 25
30 29 30 29 26 25 31 28 32 32 32 33 33 33 31 30 30 30 30 30 29 27 27 27 26 25 25 24 23 22 22 23 24 24 25 26 25 25 24 23 23 23 24 24 24 25 24 24 25
32 31 32 31 27 29 31 32 32 30 31 32 32 31 31 30 30 30 31 30 30 28 27 26 25 25 24 24 25 23 23 24 23 24 25 25 25 25 26 24 24 24 24 25 25 25 25 27 28
32 32 32 30 28 29 30 31 31 30 32 34 33 32 31 32 31 31 31 31 29 28 27 26 24 23 23 23 25 24 24 25 25 25 24 25 27 26 27 27 26 26 27 26 27 28 27 27 27
31 32 31 31 30 28 30 28 30 30 32 34 33 32 32 32 31 30 30 30 28 28 27 25 24 22 23 25 25 24 26 27 25 25 25 25 25 26 27 26 27 27 28 28 28 28 28 28 28
34 33 31 31 30 29 28 26 28 29 31 33 32 32 32 31 31 31 30 29 28 27 27 26 25 23 23 25 25 26 27 26 26 26 25 24 26 24 26 27 27 28 28 28 28 27 29 29 28
34 31 32 30 29 28 26 23 26 25 28 32 32 32 31 30 31 31 29 28 28 28 27 27 26 24 22 24 24 26 26 27 27 26 24 25 25 25 26 27 26 28 27 27 27 27 29 29 29
33 33 31 31 31 29 29 23 22 23 25 30 31 31 31 31 30 30 30 28 27 28 27 26 27 26 24 25 25 26 27 27 27 26 25 25 25 25 26 27 28 28 28 29 29 29 30 30 30
34 30 25 30 30 29 29 27 24 22 25 27 27 31 31 31 29 29 30 28 29 28 26 26 26 26 25 25 25 26 26 27 27 27 27 25 25 25 26 28 27 26 29 29 29 30 30 30 30
31 33 32 30 30 30 29 28 27 24 24 25 26 28 31 31 29 30 30 29 29 27 26 25 25 25 25 24 25 26 25 26 27 27 27 25 26 25 26 27 27 26 28 29 28 29 29 30 31
34 34 31 29 31 30 30 29 27 25 24 24 24 27 30 30 30 29 30 30 27 27 25 25 24 24 24 25 25 26 26 26 27 27 25 25 25 25 25 27 26 24 28 27 27 28 28 30 29
34 34 32 32 31 31 30 31 29 27 27 26 24 28 27 32 30 30 29 31 30 28 25 24 24 23 24 25 26 27 27 27 27 26 25 25 25 25 26 25 27 27 27 27 27 27 29 30 30
34 34 32 31 28 32 31 31 29 29 28 26 24 26 27 28 25 31 28 31 30 29 27 25 24 23 25 26 26 26 27 26 26 26 26 26 25 25 25 25 25 26 26 28 27 27 28 28 30
34 35 33 32 32 29 32 31 30 30 28 25 24 27 30 30 31 30 30 31 31 29 28 26 25 24 24 25 26 26 26 27 27 27 27 26 25 26 25 25 25 25 26 23 27 28 27 28 29
32 33 33 33 33 34 35 33 32 31 28 27 25 29 31 30 33 32 32 30 31 30 29 27 26 24 25 25 25 26 27 27 27 28 26 26 25 26 26 25 25 25 26 26 26 26 26 28 28
35 33 33 33 33 33 35 34 27 29 31 31 28 31 32 31 34 34 33 31 30 30 29 28 26 24 24 25 24 25 27 26 28 28 26 27 26 26 25 25 25 25 26 25 26 26 26 26 26
34 33 32 32 33 33 28 34 29 27 34 32 28 31 32 31 34 35 33 31 30 31 30 28 26 25 25 24 24 24 25 26 26 26 27 28 28 28 26 25 25 25 24 25 25 25 26 26 26
33 34 33 30 27 29 28 32 25 34 34 35 33 32 33 30 33 34 34 32 30 30 30 29 27 26 25 25 25 25 25 25 26 25 26 28 28 28 26 25 25 25 26 25 25 26 26 27 27
34 33 36 32 33 32 28 30 32 34 34 34 34 34 32 33 33 30 34 33 32 31 30 29 28 26 26 25 25 24 24 25 25 26 26 27 27 27 27 26 26 26 26 25 25 25 27 26 26
34 35 33 34 29 29 27 23 26 32 32 32 33 34 33 33 31 28 34 33 32 31 30 29 28 27 26 26 26 26 25 24 25 25 24 26 27 26 25 26 25 25 26 26 25 26 26 26 26
33 33 34 34 30 27 27 24 32 30 32 32 33 33 33 33 31 31 31 33 32 32 30 30 29 28 27 27 27 26 26 26 25 25 25 25 25 25 25 25 25 25 25 25 25 25 25 25 26
23 28 31 30 30 26 25 22 31 31 31 32 32 32 31 29 27 27 22 31 31 31 30 30 29 28 27 27 27 27 27 27 27 25 25 25 24 24 25 25 25 25 25 25 24 24 26 26 26

GFSSGP_925_temp_138.txt.gz
Temp
25 24 26 29 27 28 31 32 35 34 34 36 35 33 31 26 28 26 26 27 26 24 22 21 21 20 20 22 21 21 20 20 20 21 21 21 21 21 21 21 21 21 21 21 21 21 21 21 22
25 27 30 25 26 30 28 34 31 33 35 35 27 30 32 30 31 29 28 27 26 25 23 22 21 21 21 21 21 20 21 21 21 21 21 21 21 21 21 21 21 21 21 21 21 21 21 21 22
25 29 28 22 25 28 32 33 33 34 32 34 27 30 32 30 32 30 26 24 23 25 23 21 21 21 21 21 21 21 21 21 21 21 21 21 21 21 21 21 21 21 21 21 21 21 21 21 23
28 30 30 23 27 33 34 34 35 34 33 34 33 31 32 31 31 29 26 22 25 23 23 21 21 21 21 21 21 21 21 21 21 21 21 21 21 21 21 21 21 21 21 21 21 21 21 21 23
29 29 24 26 29 34 36 36 35 31 29 30 33 31 31 31 31 29 28 26 25 25 23 22 21 21 21 21 21 21 21 21 21 21 21 21 21 21 21 21 21 21 21 21 21 21 21 22 23
31 24 25 25 32 34 35 35 31 30 34 32 32 30 30 31 31 31 28 28 27 26 23 22 21 21 21 21 21 21 21 21 21 21 21 21 21 22 21 21 21 22 21 21 21 21 21 23 24
27 24 23 24 32 32 33 33 27 32 28 33 32 29 30 31 31 30 28 27 28 27 24 23 22 21 21 21 21 21 21 21 21 21 21 21 21 21 21 21 21 22 21 21 21 22 23 23 25
28 24 25 24 28 28 32 28 33 30 29 34 33 30 29 31 31 31 28 28 28 28 26 24 23 22 22 21 21 21 21 21 21 21 22 23 22 22 23 22 22 21 22 22 23 22 23 25 25
22 26 23 22 26 27 30 31 34 32 35 33 31 31 32 31 31 31 30 30 28 26 25 25 24 23 22 21 21 21 21 23 23 23 23 23 24 23 22 23 23 23 24 24 23 23 24 25 25
24 21 27 28 26 26 26 23 26 33 33 32 32 32 32 31 31 31 30 29 29 26 24 23 22 23 23 23 22 22 22 23 23 24 24 24 25 24 23 24 24 24 24 25 24 24 25 25 25
30 25 27 29 28 25 22 25 31 31 31 33 31 32 32 31 30 31 28 29 29 27 23 24 24 25 25 23 23 23 23 23 24 25 25 25 26 25 25 25 25 25 25 25 26 25 25 26 26
29 33 32 28 29 30 27 25 30 30 27 28 33 33 32 31 30 30 31 28 28 27 26 23 25 25 25 24 24 24 24 24 24 25 25 25 25 25 26 25 26 26 27 26 27 27 27 27 28
34 33 32 31 31 28 25 25 30 30 32 33 33 32 32 30 25 27 30 29 28 26 27 24 24 24 24 25 25 24 25 25 25 25 25 26 26 26 27 27 27 27 28 27 28 27 28 28 28
28 28 32 31 30 30 27 27 30 30 31 33 33 32 32 31 31 31 28 28 28 26 25 24 23 23 24 23 25 25 24 26 26 26 25 25 25 26 27 26 27 28 27 27 27 28 28 28 28
28 29 31 31 30 29 28 25 25 27 27 29 33 32 32 29 27 30 28 28 27 26 24 25 24 23 23 22 22 25 26 27 27 26 26 25 25 26 26 26 27 27 28 28 28 28 29 29 29
35 34 30 31 30 29 29 26 22 24 25 28 31 29 28 30 30 29 29 28 28 27 25 26 26 24 24 25 24 25 27 27 26 25 25 25 25 26 27 27 27 27 28 28 28 28 29 30 29
35 32 28 25 28 30 29 27 24 24 25 27 28 28 26 26 30 26 28 29 29 27 27 26 25 24 24 25 25 26 27 27 27 26 26 26 25 25 25 25 27 28 27 28 29 29 30 30 30
29 32 32 24 30 30 29 28 26 25 25 26 28 27 25 23 31 29 29 29 28 27 26 26 25 25 25 25 25 26 26 27 27 27 26 26 25 26 25 25 27 26 26 26 29 29 29 30 30
32 33 31 29 30 31 30 29 28 27 24 26 26 29 27 28 31 30 28 30 28 26 26 25 25 25 25 25 25 26 26 26 27 26 25 25 26 25 24 25 26 24 24 25 28 28 29 29 30
34 33 33 32 33 32 32 29 29 27 26 28 27 25 27 27 27 31 30 30 28 26 25 24 24 24 25 25 26 26 26 27 27 26 26 25 25 25 26 26 25 23 21 22 27 27 28 29 30
35 34 32 31 32 33 32 31 28 28 28 28 28 25 25 26 24 25 30 29 28 26 25 24 24 24 24 25 26 26 27 27 26 26 26 25 25 25 25 25 25 23 23 24 26 27 26 26 28
34 35 33 32 32 32 33 30 30 29 27 28 27 26 27 28 23 24 28 30 28 26 24 24 23 24 24 25 26 26 26 26 26 26 26 26 25 25 26 25 25 24 22 24 25 26 25 29 26
35 34 34 33 32 34 34 33 32 29 27 27 28 27 28 29 23 25 24 31 30 26 26 24 24 24 24 25 26 26 26 27 27 27 26 26 25 26 26 26 25 25 25 26 24 26 26 26 25
36 34 34 32 33 32 35 35 29 26 26 29 28 28 28 30 30 27 25 26 30 30 27 25 24 24 24 24 25 26 26 26 26 27 26 26 25 26 26 26 25 25 25 25 26 26 26 26 27
35 34 32 32 32 32 32 33 29 31 28 31 30 28 29 30 32 25 25 26 30 30 29 26 24 23 24 24 24 25 25 26 25 26 26 27 26 26 26 26 25 25 25 26 26 25 26 26 26
34 34 33 30 28 25 29 28 31 33 32 33 32 29 30 32 31 27 29 30 31 29 29 28 25 24 24 24 24 24 25 25 25 26 27 27 26 26 27 26 25 25 25 25 25 25 25 26 26
34 33 35 33 33 29 28 28 28 32 34 35 32 30 31 31 32 30 30 28 29 28 29 28 25 25 24 24 24 24 24 25 26 26 26 26 26 26 25 25 25 26 26 26 25 25 26 26 26
34 35 33 34 31 29 26 24 24 23 21 34 32 27 30 32 30 32 30 28 31 29 30 28 26 26 25 26 24 24 24 25 25 25 25 26 26 26 26 26 25 26 26 26 25 25 26 26 26
34 33 30 31 29 30 27 22 20 20 22 30 34 31 33 32 31 32 29 27 26 29 29 29 27 26 26 26 25 25 24 24 25 24 24 26 25 25 25 25 25 25 25 25 25 25 25 25 25
32 31 29 29 22 25 28 22 21 20 21 33 33 33 30 33 34 32 30 26 28 28 29 29 28 27 27 27 26 26 26 25 25 25 25 25 25 25 25 24 24 24 25 25 25 24 25 25 25

GFSSGP_925_temp_141.txt.gz
Temp
26 26 24 24 24 25 29 30 32 31 29 30 31 29 29 27 26 22 24 23 22 22 21 21 21 20 20 20 20 21 21 20 21 21 21 21 21 21 20 20 21 21 21 21 21 21 21 21 21
26 25 25 21 23 25 28 30 30 29 28 30 31 29 28 26 26 24 24 23 22 22 21 21 21 20 20 21 22 21 20 20 21 21 21 21 21 21 21 21 21 21 21 21 21 21 22 22 22
26 25 22 22 23 27 28 31 31 30 30 30 29 30 29 25 25 22 23 23 22 22 21 21 21 20 21 21 21 21 21 21 21 21 21 21 21 21 21 21 21 21 21 21 21 21 22 22 21
25 26 21 24 25 29 32 32 32 31 30 29 30 29 29 26 25 24 25 24 23 22 21 21 21 21 21 21 21 21 21 21 21 21 21 21 21 21 21 21 21 21 21 21 21 21 21 23 22
26 23 23 23 26 28 32 32 32 29 27 28 30 29 27 25 25 27 25 23 22 21 21 21 21 21 21 21 21 21 21 21 21 21 21 21 21 21 21 21 21 21 21 21 21 22 23 23 23
23 23 24 24 25 26 31 31 30 31 29 30 29 29 27 23 23 25 25 23 23 22 21 21 21 21 21 21 21 21 21 21 21 21 21 21 21 21 21 21 22 21 21 21 21 23 24 24 24
22 22 23 23 23 23 29 31 30 29 31 30 30 27 27 25 24 23 24 24 23 22 21 21 21 21 21 21 21 21 21 21 21 21 21 21 21 21 21 22 22 21 21 21 23 24 24 24 24
20 21 22 22 23 25 27 29 30 27 25 31 31 28 27 25 26 25 25 24 23 22 22 21 21 21 21 21 21 21 21 21 21 21 21 21 21 21 21 22 22 22 22 22 23 24 25 25 25
22 22 22 22 22 24 24 26 30 31 31 31 31 30 29 26 27 25 24 23 23 23 22 22 22 21 21 21 21 21 21 21 21 21 22 23 23 23 23 23 24 24 23 23 24 25 25 25 26
22 22 24 24 25 24 23 24 24 30 31 30 30 30 31 29 27 26 25 23 22 22 23 23 22 22 22 22 22 22 22 23 23 23 23 23 22 24 24 24 25 25 24 24 24 25 26 26 25
23 24 26 26 24 23 22 24 25 27 28 29 29 30 30 29 30 28 26 22 23 22 23 23 23 22 22 22 22 23 23 23 23 24 24 23 23 24 25 25 26 25 25 25 25 25 25 25 26
28 28 27 28 25 23 21 21 22 27 27 29 29 31 29 28 27 27 26 23 23 23 24 23 23 22 23 24 23 23 23 24 24 24 24 24 24 25 25 25 25 25 26 26 25 26 26 26 26
25 28 28 28 27 23 23 23 29 27 30 31 31 31 27 25 26 27 27 25 23 23 24 24 23 22 23 23 24 24 24 24 25 25 25 25 25 25 25 25 25 25 25 26 26 27 27 28 28
27 24 27 29 26 25 26 25 28 27 28 30 31 29 26 25 27 26 27 25 23 22 22 24 24 24 24 24 24 23 24 24 25 25 25 25 25 26 25 26 26 26 27 27 27 27 28 28 28
27 26 26 29 27 26 25 26 26 26 27 30 30 29 28 26 27 27 27 26 24 23 23 25 24 23 23 24 23 24 25 25 25 25 25 25 26 26 26 26 26 26 27 28 28 28 28 28 28
29 28 27 23 24 27 26 25 24 25 25 27 28 29 26 25 27 27 27 25 25 24 23 24 24 23 24 24 25 25 25 24 25 26 25 25 25 25 25 26 26 27 26 26 28 28 28 28 28
31 28 26 25 24 24 26 24 25 24 24 26 26 25 27 26 26 27 27 26 25 25 24 24 23 23 24 24 26 25 25 26 26 26 25 26 26 25 25 24 25 26 27 26 27 27 27 28 29
30 29 27 25 25 24 27 26 24 24 24 26 26 25 26 25 25 27 28 27 25 25 24 24 24 24 24 24 25 25 26 26 27 26 25 25 25 25 25 24 24 26 27 26 25 25 29 29 29
33 30 29 25 26 26 27 27 25 24 24 24 25 24 24 24 26 28 28 27 26 25 25 24 24 25 24 25 25 26 26 27 26 26 26 26 25 25 24 24 25 26 25 26 25 27 27 28 29
32 31 28 24 25 24 28 27 25 25 25 24 24 25 25 25 24 26 27 26 26 25 25 24 24 24 25 25 25 26 26 26 26 26 25 26 26 25 24 24 26 26 26 26 25 26 27 28 28
33 31 28 27 28 31 30 27 26 25 25 25 25 25 25 25 24 25 25 26 25 25 25 25 24 24 25 25 25 26 26 26 25 25 25 26 26 25 25 25 25 25 26 25 24 26 27 27 27
31 33 32 32 30 26 29 25 25 25 25 25 26 25 25 25 25 23 24 26 24 25 25 25 24 24 24 25 25 25 26 25 25 26 26 26 25 25 25 25 25 26 25 25 24 25 26 26 26
32 34 33 32 30 29 30 27 26 24 24 25 26 26 26 26 24 24 23 26 25 24 24 24 24 24 24 25 25 26 26 26 26 26 25 25 25 25 25 25 25 25 26 26 26 25 25 26 26
34 33 32 31 28 25 28 27 25 24 26 26 26 27 26 26 24 24 27 25 26 24 24 24 24 24 24 24 25 26 26 26 25 26 25 25 25 26 25 25 25 25 25 25 25 25 25 26 28
32 30 25 25 25 25 26 27 25 27 27 27 27 27 27 26 24 24 24 24 25 24 24 23 24 24 24 24 25 25 25 25 25 26 26 26 25 25 25 26 25 25 25 25 25 25 25 25 26
31 29 25 27 25 25 27 26 26 24 24 27 29 28 27 26 27 26 24 26 26 25 24 23 24 24 24 24 24 24 25 25 25 26 26 26 26 25 26 26 25 25 25 25 25 25 25 25 26
30 28 30 28 27 25 25 25 28 24 24 24 23 27 26 27 28 25 25 27 26 27 25 24 24 24 24 24 24 24 24 25 25 26 25 26 26 26 27 26 25 25 25 25 25 25 25 25 25
31 31 27 25 25 26 24 23 22 22 21 22 21 21 24 27 27 26 25 25 27 28 25 24 24 24 25 24 24 24 24 24 25 25 25 26 25 26 25 26 25 25 25 25 25 25 25 25 25
27 27 26 23 22 23 23 23 22 21 20 20 20 21 21 28 28 26 27 26 25 27 27 24 23 24 24 25 24 24 24 24 24 25 25 25 25 24 25 25 25 25 25 25 25 25 25 25 25
29 29 26 23 23 21 21 22 22 21 21 20 20 21 23 23 26 25 27 25 24 26 26 24 24 24 24 24 25 25 25 24 25 25 25 25 25 25 24 25 25 25 25 25 25 25 25 25 25

GFSSGP_925_temp_144.txt.gz
Temp
26 25 24 22 24 23 25 28 28 28 26 27 25 25 27 26 26 23 23 22 22 22 21 20 20 20 20 20 21 20 21 21 21 21 21 21 21 20 21 21 21 21 21 21 21 21 21 21 21
25 25 23 21 23 26 27 28 28 27 28 26 28 27 25 23 24 21 21 21 22 21 21 21 21 20 21 20 21 21 21 22 21 21 21 21 21 21 21 21 21 21 21 21 21 21 21 21 21
25 25 22 22 22 26 27 28 27 28 29 28 27 28 25 23 23 22 22 22 22 21 21 20 21 21 21 21 22 21 21 21 21 21 21 21 21 21 21 21 21 21 21 21 21 21 21 21 22
24 23 22 23 25 28 28 28 29 29 30 29 28 25 25 24 23 22 22 22 21 21 21 21 21 21 21 21 22 21 21 21 21 21 21 21 21 21 21 21 21 21 21 21 21 21 21 22 23
24 22 23 24 26 26 25 30 30 28 28 28 27 25 24 24 23 22 22 22 22 21 21 21 21 21 21 21 21 21 21 21 21 21 21 21 21 21 21 21 21 21 21 21 21 21 21 23 23
21 22 23 23 24 23 25 29 29 28 29 28 26 25 22 23 22 22 21 22 22 21 21 21 21 21 21 21 21 21 21 21 21 21 21 21 21 21 21 21 21 21 21 21 22 21 23 23 23
21 21 23 23 22 23 25 27 27 29 29 28 28 23 21 22 22 22 22 21 21 21 21 21 21 21 21 21 21 21 21 21 21 21 21 21 21 21 21 21 21 21 21 22 23 23 23 24 24
20 21 22 22 22 22 25 27 28 28 27 30 27 24 22 22 23 22 22 23 22 21 21 21 21 21 21 21 21 21 21 21 21 21 21 21 21 21 21 21 21 21 21 23 23 24 24 24 24
22 21 22 22 22 23 25 25 28 30 29 30 30 26 25 22 22 22 22 22 21 21 21 21 21 21 21 21 21 21 21 21 21 21 21 21 22 22 22 22 21 21 22 23 24 25 25 25 25
22 22 24 24 23 23 24 23 25 28 29 28 26 25 24 23 22 21 21 21 22 21 21 21 22 21 21 21 21 21 21 22 22 22 22 22 23 23 23 23 23 23 24 25 25 25 25 25 25
22 23 26 25 23 23 22 24 25 27 27 28 25 25 24 23 23 22 22 21 21 22 22 21 22 22 22 22 22 22 22 22 23 23 23 22 22 23 24 24 24 24 24 24 25 25 26 26 26
25 26 26 25 24 23 22 23 25 28 28 29 28 26 26 24 24 22 21 20 21 22 22 22 22 22 23 23 23 23 22 22 23 22 23 23 23 24 25 25 25 25 24 24 24 25 25 26 26
22 24 26 25 25 23 23 24 24 28 29 30 30 28 26 25 24 23 22 21 21 21 22 22 23 23 23 23 23 23 23 23 23 24 23 24 24 25 25 25 25 25 25 25 25 26 26 26 27
24 23 27 26 23 24 23 22 24 27 28 29 28 26 24 25 25 24 22 21 22 22 22 23 23 23 23 23 23 23 23 24 24 24 24 24 24 24 25 25 25 25 25 26 26 27 27 27 27
25 26 24 26 25 25 24 24 24 25 26 29 27 25 26 27 26 24 22 21 23 23 23 23 24 23 23 23 23 24 23 24 25 25 24 25 24 24 25 24 24 25 26 25 25 26 27 27 28
27 25 25 24 25 26 26 25 26 25 26 27 26 26 25 26 25 25 22 22 22 23 24 23 22 22 23 24 24 24 24 24 24 25 25 25 25 25 25 26 26 25 25 26 26 26 27 27 28
29 26 24 25 25 26 25 25 26 24 25 25 26 25 25 24 25 25 24 23 23 24 23 23 23 24 24 25 24 24 24 24 25 25 25 25 25 25 25 25 25 26 26 27 27 27 27 27 28
27 27 27 26 25 24 24 24 25 23 24 25 25 24 24 24 25 25 24 22 24 23 23 23 24 24 24 25 24 24 24 25 25 25 25 25 25 25 25 26 26 26 27 27 26 26 27 28 28
29 29 26 26 26 26 25 25 25 23 23 24 23 23 24 25 25 26 24 23 24 24 23 24 24 24 24 24 24 24 24 25 25 25 25 25 25 25 25 25 26 25 27 27 26 26 26 26 27
29 29 25 26 27 25 26 26 25 23 24 24 24 24 24 24 24 25 24 24 23 23 24 24 24 24 24 24 24 25 25 25 26 25 25 25 25 25 25 25 25 25 26 26 26 26 26 26 27
30 27 26 27 27 26 26 25 24 23 23 23 23 24 24 24 23 24 24 24 23 23 24 24 24 24 24 25 25 25 25 25 25 25 25 25 25 25 25 25 25 25 25 26 26 26 26 27 27
29 30 30 30 27 25 26 24 24 23 23 23 24 24 24 24 23 23 24 24 23 23 24 24 25 24 25 25 25 25 25 25 25 25 25 25 25 24 25 25 25 25 26 26 26 25 25 26 27
30 31 29 30 27 27 27 26 25 23 23 23 24 24 24 25 24 23 24 24 24 23 23 24 24 24 25 24 25 25 25 25 25 25 25 25 25 24 25 25 25 25 26 26 26 25 25 26 26
32 32 27 25 24 24 26 25 24 22 23 25 24 25 25 24 25 24 24 25 24 23 23 24 24 24 24 25 24 25 25 25 25 25 25 25 25 25 25 25 25 25 25 25 26 25 25 25 26
28 25 23 24 24 24 24 25 22 23 23 23 24 25 25 25 26 24 21 23 24 23 23 23 23 23 24 24 24 25 25 25 26 25 25 25 25 25 25 25 25 25 25 25 25 25 25 25 25
29 25 23 26 23 24 26 26 25 23 23 22 22 24 25 25 25 25 22 23 24 23 23 23 23 23 23 24 24 24 24 25 25 26 26 26 25 25 25 25 25 25 24 24 25 25 25 25 25
30 27 26 24 24 23 22 25 23 23 22 21 21 21 20 23 23 24 24 23 24 23 23 23 23 23 23 24 25 24 24 24 25 25 25 25 25 25 25 26 25 25 25 24 25 25 25 25 25
30 28 26 21 24 25 23 24 22 22 20 20 20 20 20 20 22 24 25 24 24 24 24 23 24 23 24 23 25 25 24 24 25 25 25 25 25 25 25 25 25 25 25 25 24 24 25 25 25
26 25 21 19 20 21 22 21 22 21 20 19 20 20 20 20 22 24 24 25 25 25 24 23 23 22 23 23 24 24 24 24 25 24 25 25 25 25 25 25 25 25 25 25 24 25 24 25 25
27 26 22 21 23 19 20 20 21 20 20 20 20 20 19 20 21 23 24 24 23 25 24 23 23 23 23 24 23 23 24 24 24 24 24 24 24 25 25 25 25 25 24 25 24 24 24 24 24

GFSSGP_925_temp_147.txt.gz
Temp
22 23 22 22 23 23 25 26 27 25 25 25 26 25 25 24 24 23 21 22 22 21 20 20 20 21 22 22 22 22 21 21 21 21 21 21 21 21 21 21 21 21 21 21 21 21 21 21 21
24 24 23 21 24 24 25 27 26 26 26 24 26 26 24 23 22 19 20 22 22 21 20 21 21 21 21 21 21 21 21 21 21 21 21 21 21 21 21 21 21 21 21 21 21 21 21 21 21
24 24 22 22 24 24 24 27 26 26 26 27 26 25 24 22 22 21 22 21 21 21 21 20 20 21 21 20 21 21 21 21 21 22 21 21 21 21 21 21 21 21 21 21 21 21 21 21 21
24 22 21 23 26 26 27 27 27 27 28 28 26 24 24 24 23 22 22 21 21 20 21 21 21 21 21 21 21 21 21 21 21 21 21 21 21 21 21 21 21 21 21 21 21 21 22 21 22
24 21 23 24 25 26 24 28 28 27 27 27 27 23 22 23 22 22 22 22 21 20 21 21 21 21 21 21 21 21 21 21 21 21 21 21 21 21 21 21 21 21 21 21 21 22 22 22 22
22 22 23 23 23 23 25 24 28 27 27 26 24 23 21 22 21 21 21 21 21 20 21 21 21 21 21 21 22 21 21 21 21 21 21 21 21 21 21 21 21 21 21 21 21 22 23 22 22
22 22 22 22 22 22 23 26 28 27 26 26 26 21 21 20 21 21 21 21 21 20 20 21 21 21 21 21 21 21 21 21 21 21 21 21 21 21 21 21 21 21 21 21 22 23 23 23 23
20 22 23 22 22 22 24 26 28 28 27 27 26 22 20 21 20 21 21 21 20 20 21 21 20 21 21 21 21 20 21 21 21 22 21 21 21 21 21 21 21 21 21 21 23 23 23 23 23
22 22 22 22 22 22 24 25 28 29 28 28 27 25 23 21 21 20 20 20 20 20 20 21 21 21 21 21 21 21 21 21 21 21 22 22 21 21 21 21 21 21 22 23 24 24 24 24 24
22 22 24 24 23 23 24 24 24 27 28 26 25 23 22 21 20 20 20 19 20 20 20 21 21 21 21 21 21 21 21 21 21 21 22 22 22 22 22 21 21 22 22 23 24 25 25 25 24
23 23 25 24 24 23 24 24 22 27 27 25 23 22 22 21 21 21 20 20 20 21 21 21 21 21 21 21 21 21 21 21 21 22 22 22 22 22 22 23 23 24 24 24 24 25 25 25 25
24 25 25 24 24 23 23 22 22 25 27 26 25 24 23 21 21 21 21 20 20 20 21 21 21 22 21 22 22 22 22 22 22 22 22 22 22 23 23 24 24 24 24 24 25 25 25 25 25
24 25 25 25 24 23 23 22 24 26 28 26 25 24 23 22 22 21 21 21 20 20 21 21 22 22 22 22 22 22 22 22 22 23 23 23 23 24 24 24 24 23 24 24 25 25 25 26 26
25 25 25 25 24 24 23 23 23 26 28 26 25 23 23 22 23 22 21 20 21 21 21 22 22 22 22 23 22 23 22 23 23 24 24 24 23 24 24 24 24 24 24 26 26 26 26 26 27
25 24 25 25 24 24 23 23 23 24 27 26 25 24 24 24 23 22 22 21 21 22 22 22 22 22 23 23 23 23 23 23 23 24 24 24 24 24 25 25 25 25 25 26 26 26 26 27 27
27 25 25 24 25 25 24 24 23 23 26 27 26 25 24 23 23 23 22 22 21 22 22 22 22 22 23 23 23 23 23 23 24 24 24 24 24 24 25 25 25 25 25 26 26 27 27 27 27
24 26 25 25 24 25 24 25 25 23 26 25 24 25 24 23 23 22 22 21 22 22 22 22 21 23 23 23 24 24 23 24 24 24 24 24 24 24 25 25 25 25 26 26 27 26 27 27 27
25 25 25 25 24 24 24 24 23 24 24 25 25 24 22 23 23 22 22 22 22 23 22 22 22 23 23 23 23 23 23 23 24 24 24 24 24 25 25 25 25 25 26 26 26 26 27 27 27
28 27 26 25 25 24 24 25 24 23 23 23 24 23 23 22 23 23 23 22 22 21 22 22 22 23 22 22 23 22 23 24 24 24 24 24 25 25 25 25 25 25 26 26 27 26 26 27 27
27 27 26 27 25 25 24 24 24 22 24 24 23 24 24 23 21 23 22 22 22 22 22 22 23 23 23 24 24 24 24 24 25 24 24 24 24 25 25 25 25 25 26 26 26 26 26 26 26
27 26 25 28 25 25 25 24 23 22 23 23 23 25 25 24 22 23 22 22 22 21 22 23 23 24 24 24 24 24 23 24 24 24 24 25 24 25 25 25 25 25 25 25 25 26 26 26 25
26 28 28 29 25 24 25 24 24 22 22 22 23 23 23 23 22 23 23 22 22 23 23 23 24 24 24 24 24 24 24 23 24 25 25 24 25 24 25 25 25 25 25 25 25 26 27 26 26
27 29 28 28 25 26 26 24 25 22 21 21 23 24 23 24 23 23 23 23 23 23 23 24 24 24 24 24 24 24 24 25 25 25 25 24 24 24 24 25 24 25 24 24 25 25 26 26 25
29 28 25 22 22 23 24 24 22 21 21 22 22 22 23 24 24 22 23 23 22 22 22 23 24 24 24 24 24 24 25 25 25 25 25 25 24 24 24 24 24 24 25 25 25 25 25 25 26
25 24 22 24 23 23 23 24 22 22 22 21 21 22 23 24 25 22 21 22 22 22 22 22 23 23 24 23 24 24 25 25 24 25 25 25 24 24 24 24 24 24 25 24 25 25 25 25 25
27 24 22 25 22 23 24 24 22 22 21 21 21 21 21 22 25 23 23 22 22 22 23 22 23 23 23 24 24 24 24 25 24 25 25 25 25 25 25 24 24 24 24 24 25 25 25 25 25
28 26 25 20 20 22 22 23 22 21 20 20 21 20 20 20 22 24 23 21 23 23 22 22 23 23 23 23 24 24 24 25 25 25 25 25 25 25 25 25 24 24 24 24 24 24 24 24 24
29 24 25 20 24 25 22 23 22 22 21 20 20 19 20 19 20 22 23 23 23 23 22 22 23 23 24 23 23 23 24 24 24 25 25 25 25 25 25 25 25 25 25 24 24 24 24 24 24
26 24 19 19 19 20 21 21 21 21 20 20 20 19 18 19 19 21 22 23 23 24 22 22 23 23 23 24 23 23 23 24 24 25 25 25 25 25 25 25 25 25 25 25 24 24 24 24 24
26 25 21 21 22 18 19 20 21 20 20 19 20 20 20 19 19 20 21 22 22 24 23 22 22 22 23 24 23 23 23 23 24 24 25 25 24 25 25 25 25 25 24 24 24 24 24 24 24